GW1279 Weather Reports


time (UTC)temp
F
wind
direction
speed
knots
gust
knots
rain 1hr
in
rain 24hr
in
rain mn
in
humidity
%
barometer
mb
20260505011527 49 0 0.0 0.0 0.00 0.01 0.01 86 1006.5
20260505010028 49 0 0.0 0.0 0.00 0.01 0.01 84 1006.4
20260505004531 50 0 0.0 0.0 0.00 0.01 0.01 81 1006.2
20260505003028 52 0 0.0 0.0 0.00 0.01 0.01 76 1005.8
20260505001534 53 0 0.0 0.0 0.00 0.01 0.01 73 1005.6
20260505000037 55 0 0.0 0.0 0.00 0.01 0.01 69 1005.5
20260504234528 57 0 0.0 0.0 0.00 0.01 0.01 66 1005.5
20260504233029 60 0 0.0 0.0 0.00 0.01 0.01 62 1005.2
20260504231540 62 0 0.0 0.0 0.00 0.01 0.01 57 1005.1
20260504230028 63 0 0.0 3.5 0.00 0.01 0.01 50 1005.0
20260504224528 64 0 0.0 2.6 0.00 0.01 0.01 48 1005.0
20260504223030 64 0 0.0 6.1 0.00 0.01 0.01 50 1004.8
20260504221530 64 0 0.9 7.0 0.00 0.01 0.01 48 1004.8
20260504220032 63 248 2.6 11.3 0.00 0.01 0.01 49 1004.8
20260504214531 62 246 0.9 7.8 0.00 0.01 0.01 53 1004.8
20260504213030 64 0 0.0 6.1 0.00 0.01 0.01 55 1004.9
20260504211530 63 319 1.7 7.0 0.00 0.01 0.01 55 1004.6
20260504210043 62 318 2.6 7.8 0.00 0.01 0.01 56 1004.6
20260504204528 62 0 0.9 3.5 0.00 0.01 0.01 59 1004.6
20260504203033 62 240 0.9 9.6 0.00 0.01 0.01 56 1004.4
20260504201529 62 280 0.9 10.4 0.00 0.01 0.01 58 1004.4
20260504200028 61 240 2.6 11.3 0.00 0.01 0.01 60 1004.5
20260504194542 61 299 2.6 10.4 0.00 0.02 0.01 61 1004.5
20260504193030 60 261 0.9 7.8 0.00 0.02 0.01 67 1004.6
20260504191535 57 258 0.0 6.1 0.01 0.02 0.01 77 1004.6
20260504190032 54 267 0.0 1.7 0.01 0.02 0.01 80 1004.7
20260504184537 53 0 0.0 0.0 0.01 0.04 0.01 82 1005.0
20260504183028 52 0 0.0 0.0 0.01 0.04 0.01 82 1005.2
20260504181530 52 0 0.0 2.6 0.00 0.03 0.00 81 1005.3
20260504180033 53 288 0.0 2.6 0.00 0.03 0.00 76 1005.4
20260504174530 54 0 0.0 7.8 0.00 0.05 0.00 70 1005.2
20260504173035 56 302 2.6 10.4 0.00 0.05 0.00 64 1004.9
20260504171528 58 289 0.0 6.1 0.00 0.05 0.00 61 1004.5
20260504081529 35 0 0.0 0.9 0.00 0.34 0.00 81 1006.2
20260504044528 38 0 0.0 3.5 0.00 0.36 0.00 74 1005.4
20260504043028 38 0 0.0 2.6 0.00 0.36 0.00 74 1005.4
20260504041527 38 0 0.0 4.3 0.00 0.36 0.00 73 1005.3
20260504040031 38 0 0.0 0.9 0.00 0.36 0.00 74 1005.3
20260504034539 38 298 0.0 4.3 0.00 0.36 0.36 73 1005.1
20260504033031 38 0 0.0 1.7 0.00 0.36 0.36 73 1004.9
20260504031530 39 0 0.0 4.3 0.00 0.36 0.36 70 1004.8
20260504030037 39 0 0.0 3.5 0.00 0.36 0.36 71 1004.7
20260504024530 40 0 0.0 3.5 0.00 0.36 0.36 69 1004.7
20260504023030 40 0 0.0 1.7 0.00 0.36 0.36 67 1004.6
20260504021528 41 0 0.0 2.6 0.00 0.36 0.36 65 1004.6
20260504020030 41 305 0.0 7.0 0.00 0.36 0.36 64 1004.5
20260504014528 41 297 0.0 4.3 0.00 0.36 0.36 64 1004.4
20260504013029 42 0 0.0 8.7 0.00 0.36 0.36 64 1004.3